Time,TemperatureF,DewpointF,PressureIn,WindDirection,WindDirectionDegrees,WindSpeedMPH,WindSpeedGustMPH,Humidity,HourlyPrecipIn,Conditions,Clouds,dailyrainin,SoftwareType,DateUTC
2013-03-21 00:00:00,36.2,18.4,29.79,ESE,118,5.0,14.0,48,0.00,,,0.00,Wunderground v.1.13,2013-03-21 06:00:00,
2013-03-21 00:05:00,36.2,18.4,29.77,SSE,147,4.0,14.0,48,0.00,,,0.00,Wunderground v.1.13,2013-03-21 06:05:00,
2013-03-21 00:10:00,36.0,18.7,29.77,SSE,156,4.0,4.0,49,0.00,,,0.00,Wunderground v.1.13,2013-03-21 06:10:00,
2013-03-21 00:19:00,35.9,18.6,29.77,SSE,155,5.0,14.0,49,0.00,,,0.00,Wunderground v.1.13,2013-03-21 06:19:00,
2013-03-21 00:24:00,35.8,18.5,29.77,SSE,154,5.0,5.0,49,0.00,,,0.00,Wunderground v.1.13,2013-03-21 06:24:00,
2013-03-21 00:29:00,35.8,18.5,29.77,ESE,107,6.0,6.0,49,0.00,,,0.00,Wunderground v.1.13,2013-03-21 06:29:00,
2013-03-21 00:34:00,35.6,18.8,29.76,SSE,150,7.0,7.0,50,0.00,,,0.00,Wunderground v.1.13,2013-03-21 06:34:00,
2013-03-21 00:40:00,35.6,18.8,29.76,East,86,6.0,6.0,50,0.00,,,0.00,Wunderground v.1.13,2013-03-21 06:40:00,
2013-03-21 00:45:00,35.5,18.7,29.76,SE,146,4.0,14.0,50,0.00,,,0.00,Wunderground v.1.13,2013-03-21 06:45:00,
2013-03-21 00:50:00,35.3,18.5,29.76,SSE,157,6.0,6.0,50,0.00,,,0.00,Wunderground v.1.13,2013-03-21 06:50:00,
2013-03-21 01:00:00,35.2,18.9,29.76,SSE,153,4.0,4.0,51,0.00,,,0.00,Wunderground v.1.13,2013-03-21 07:00:00,
2013-03-21 01:05:00,35.0,18.7,29.77,ESE,119,4.0,4.0,51,0.00,,,0.00,Wunderground v.1.13,2013-03-21 07:05:00,
2013-03-21 01:09:00,34.9,18.6,29.77,SE,142,7.0,7.0,51,0.00,,,0.00,Wunderground v.1.13,2013-03-21 07:09:00,
2013-03-21 01:14:00,34.6,18.8,29.77,SE,133,6.0,6.0,52,0.00,,,0.00,Wunderground v.1.13,2013-03-21 07:14:00,
2013-03-21 01:20:00,34.3,18.5,29.75,SSE,163,6.0,14.0,52,0.00,,,0.00,Wunderground v.1.13,2013-03-21 07:20:00,
2013-03-21 01:30:00,34.1,18.7,29.75,ESE,120,3.0,14.0,53,0.00,,,0.00,Wunderground v.1.13,2013-03-21 07:30:00,
2013-03-21 01:35:00,33.8,18.5,29.75,SE,127,4.0,4.0,53,0.00,,,0.00,Wunderground v.1.13,2013-03-21 07:35:00,
2013-03-21 01:40:00,33.7,18.8,29.75,SSE,168,5.0,5.0,54,0.00,,,0.00,Wunderground v.1.13,2013-03-21 07:40:00,
2013-03-21 01:44:00,33.5,18.6,29.75,South,169,3.0,14.0,54,0.00,,,0.00,Wunderground v.1.13,2013-03-21 07:44:00,
2013-03-21 01:49:00,33.5,18.6,29.75,SSE,147,3.0,14.0,54,0.00,,,0.00,Wunderground v.1.13,2013-03-21 07:49:00,
2013-03-21 01:54:00,33.4,18.5,29.75,SSE,153,3.0,14.0,54,0.00,,,0.00,Wunderground v.1.13,2013-03-21 07:54:00,
2013-03-21 02:00:00,33.4,18.9,29.75,SSE,156,5.0,14.0,55,0.00,,,0.00,Wunderground v.1.13,2013-03-21 08:00:00,
2013-03-21 02:05:00,33.2,18.8,29.74,SSE,167,6.0,14.0,55,0.00,,,0.00,Wunderground v.1.13,2013-03-21 08:05:00,
2013-03-21 02:10:00,33.1,18.7,29.74,SSE,150,8.0,8.0,55,0.00,,,0.00,Wunderground v.1.13,2013-03-21 08:10:00,
2013-03-21 02:15:00,33.1,19.1,29.74,SE,125,8.0,8.0,56,0.00,,,0.00,Wunderground v.1.13,2013-03-21 08:15:00,
2013-03-21 02:20:00,32.9,18.9,29.73,SSE,157,8.0,8.0,56,0.00,,,0.00,Wunderground v.1.13,2013-03-21 08:20:00,
2013-03-21 02:24:00,32.9,18.9,29.73,South,178,7.0,14.0,56,0.00,,,0.00,Wunderground v.1.13,2013-03-21 08:24:00,
2013-03-21 02:34:00,32.9,18.9,29.73,SSE,157,5.0,5.0,56,0.00,,,0.00,Wunderground v.1.13,2013-03-21 08:34:00,
2013-03-21 02:40:00,32.8,18.8,29.73,SE,145,4.0,14.0,56,0.00,,,0.00,Wunderground v.1.13,2013-03-21 08:40:00,
2013-03-21 02:45:00,32.7,19.1,29.73,SSE,152,4.0,4.0,57,0.00,,,0.00,Wunderground v.1.13,2013-03-21 08:45:00,
2013-03-21 02:50:00,32.7,19.1,29.72,SSE,153,4.0,14.0,57,0.00,,,0.00,Wunderground v.1.13,2013-03-21 08:50:00,
2013-03-21 02:55:00,32.5,18.9,29.72,SE,144,4.0,4.0,57,0.00,,,0.00,Wunderground v.1.13,2013-03-21 08:55:00,
2013-03-21 03:00:00,32.5,18.9,29.72,SSE,159,5.0,14.0,57,0.00,,,0.00,Wunderground v.1.13,2013-03-21 09:00:00,
2013-03-21 03:04:00,32.4,18.8,29.71,SSE,150,6.0,14.0,57,0.00,,,0.00,Wunderground v.1.13,2013-03-21 09:04:00,
2013-03-21 03:09:00,32.4,18.8,29.71,SE,144,8.0,8.0,57,0.00,,,0.00,Wunderground v.1.13,2013-03-21 09:09:00,
2013-03-21 03:15:00,32.2,19.1,29.71,SSE,165,6.0,6.0,58,0.00,,,0.00,Wunderground v.1.13,2013-03-21 09:15:00,
2013-03-21 03:19:00,32.1,19.0,29.71,SE,129,5.0,5.0,58,0.00,,,0.00,Wunderground v.1.13,2013-03-21 09:19:00,
2013-03-21 03:24:00,31.9,18.8,29.71,SE,142,4.0,4.0,58,0.00,,,0.00,Wunderground v.1.13,2013-03-21 09:24:00,
2013-03-21 03:34:00,31.6,18.9,29.71,SSE,154,2.0,2.0,59,0.00,,,0.00,Wunderground v.1.13,2013-03-21 09:34:00,
2013-03-21 03:39:00,31.5,19.2,29.71,South,173,4.0,4.0,60,0.00,,,0.00,Wunderground v.1.13,2013-03-21 09:39:00,
2013-03-21 03:44:00,31.2,18.9,29.71,SSE,157,4.0,4.0,60,0.00,,,0.00,Wunderground v.1.13,2013-03-21 09:44:00,
2013-03-21 03:50:00,31.0,18.7,29.70,ESE,115,3.0,14.0,60,0.00,,,0.00,Wunderground v.1.13,2013-03-21 09:50:00,
2013-03-21 03:55:00,30.9,19.0,29.70,SSE,156,3.0,14.0,61,0.00,,,0.00,Wunderground v.1.13,2013-03-21 09:55:00,
2013-03-21 04:00:00,30.6,18.7,29.70,SSE,153,3.0,14.0,61,0.00,,,0.00,Wunderground v.1.13,2013-03-21 10:00:00,
2013-03-21 04:05:00,30.4,18.5,29.69,SSE,153,3.0,3.0,61,0.00,,,0.00,Wunderground v.1.13,2013-03-21 10:05:00,
2013-03-21 04:10:00,30.3,18.5,29.69,SSE,148,3.0,14.0,61,0.00,,,0.00,Wunderground v.1.13,2013-03-21 10:10:00,
2013-03-21 04:15:00,30.1,18.6,29.69,SE,138,2.0,2.0,62,0.00,,,0.00,Wunderground v.1.13,2013-03-21 10:15:00,
2013-03-21 04:20:00,30.0,18.5,29.69,SE,144,1.0,14.0,62,0.00,,,0.00,Wunderground v.1.13,2013-03-21 10:20:00,
2013-03-21 04:25:00,29.7,18.3,29.69,SSE,153,1.0,1.0,62,0.00,,,0.00,Wunderground v.1.13,2013-03-21 10:25:00,
2013-03-21 04:30:00,29.4,18.3,29.69,SE,133,1.0,14.0,63,0.00,,,0.00,Wunderground v.1.13,2013-03-21 10:30:00,
2013-03-21 04:39:00,29.1,18.4,29.69,SE,144,1.0,1.0,64,0.00,,,0.00,Wunderground v.1.13,2013-03-21 10:39:00,
2013-03-21 04:44:00,28.8,18.1,29.69,SE,144,0.0,14.0,64,0.00,,,0.00,Wunderground v.1.13,2013-03-21 10:44:00,
2013-03-21 04:50:00,28.7,18.4,29.69,SE,140,0.0,14.0,65,0.00,,,0.00,Wunderground v.1.13,2013-03-21 10:50:00,
2013-03-21 04:55:00,28.4,18.1,29.69,SE,141,0.0,14.0,65,0.00,,,0.00,Wunderground v.1.13,2013-03-21 10:55:00,
2013-03-21 05:00:00,28.1,17.8,29.69,SE,141,0.0,14.0,65,0.00,,,0.00,Wunderground v.1.13,2013-03-21 11:00:00,
2013-03-21 05:05:00,27.8,17.9,29.68,SE,141,0.0,14.0,66,0.00,,,0.00,Wunderground v.1.13,2013-03-21 11:05:00,
2013-03-21 05:10:00,27.3,17.4,29.68,SE,141,0.0,14.0,66,0.00,,,0.00,Wunderground v.1.13,2013-03-21 11:10:00,
2013-03-21 05:15:00,27.2,17.7,29.68,SE,141,0.0,14.0,67,0.00,,,0.00,Wunderground v.1.13,2013-03-21 11:15:00,
2013-03-21 05:20:00,27.0,17.5,29.68,SSE,157,0.0,14.0,67,0.00,,,0.00,Wunderground v.1.13,2013-03-21 11:20:00,
2013-03-21 05:25:00,27.0,17.5,29.68,ESE,107,0.0,14.0,67,0.00,,,0.00,Wunderground v.1.13,2013-03-21 11:25:00,
2013-03-21 05:35:00,26.7,17.6,29.68,SE,132,0.0,14.0,68,0.00,,,0.00,Wunderground v.1.13,2013-03-21 11:35:00,
2013-03-21 05:39:00,26.6,17.5,29.68,SE,143,0.0,14.0,68,0.00,,,0.00,Wunderground v.1.13,2013-03-21 11:39:00,
2013-03-21 05:44:00,26.4,17.3,29.68,SE,137,0.0,14.0,68,0.00,,,0.00,Wunderground v.1.13,2013-03-21 11:44:00,
2013-03-21 05:50:00,26.4,17.6,29.68,ESE,103,0.0,14.0,69,0.00,,,0.00,Wunderground v.1.13,2013-03-21 11:50:00,
2013-03-21 05:54:00,26.1,17.3,29.68,ESE,105,0.0,14.0,69,0.00,,,0.00,Wunderground v.1.13,2013-03-21 11:54:00,
2013-03-21 05:59:00,25.8,17.0,29.68,ESE,105,0.0,14.0,69,0.00,,,0.00,Wunderground v.1.13,2013-03-21 11:59:00,
2013-03-21 06:04:00,25.6,17.2,29.68,ESE,105,0.0,14.0,70,0.00,,,0.00,Wunderground v.1.13,2013-03-21 12:04:00,
2013-03-21 06:09:00,25.4,17.0,29.68,ESE,107,0.0,14.0,70,0.00,,,0.00,Wunderground v.1.13,2013-03-21 12:09:00,
2013-03-21 06:15:00,25.3,16.9,29.68,ESE,106,0.0,14.0,70,0.00,,,0.00,Wunderground v.1.13,2013-03-21 12:15:00,
2013-03-21 06:20:00,25.3,17.2,29.68,ESE,107,0.0,14.0,71,0.00,,,0.00,Wunderground v.1.13,2013-03-21 12:20:00,
2013-03-21 06:25:00,25.1,17.0,29.68,ESE,106,0.0,14.0,71,0.00,,,0.00,Wunderground v.1.13,2013-03-21 12:25:00,
2013-03-21 06:34:00,25.0,16.9,29.68,ESE,106,0.0,14.0,71,0.00,,,0.00,Wunderground v.1.13,2013-03-21 12:34:00,
2013-03-21 06:39:00,25.0,17.2,29.68,ESE,105,0.0,14.0,72,0.00,,,0.00,Wunderground v.1.13,2013-03-21 12:39:00,
2013-03-21 06:50:00,24.8,17.1,29.68,ESE,121,0.0,14.0,72,0.00,,,0.00,Wunderground v.1.13,2013-03-21 12:50:00,
2013-03-21 06:54:00,24.7,17.0,29.68,ESE,123,0.0,14.0,72,0.00,,,0.00,Wunderground v.1.13,2013-03-21 12:54:00,
2013-03-21 06:59:00,24.7,17.0,29.68,SE,128,0.0,14.0,72,0.00,,,0.00,Wunderground v.1.13,2013-03-21 12:59:00,
2013-03-21 07:05:00,24.8,17.1,29.68,SE,128,0.0,14.0,72,0.00,,,0.00,Wunderground v.1.13,2013-03-21 13:05:00,
2013-03-21 07:10:00,24.8,17.1,29.68,SE,127,0.0,14.0,72,0.00,,,0.00,Wunderground v.1.13,2013-03-21 13:10:00,
2013-03-21 07:15:00,25.0,17.2,29.68,SE,127,0.0,14.0,72,0.00,,,0.00,Wunderground v.1.13,2013-03-21 13:15:00,
2013-03-21 07:20:00,25.1,17.0,29.69,SE,133,0.0,14.0,71,0.00,,,0.00,Wunderground v.1.13,2013-03-21 13:20:00,
2013-03-21 07:25:00,25.3,16.9,29.69,SE,134,1.0,1.0,70,0.00,,,0.00,Wunderground v.1.13,2013-03-21 13:25:00,
2013-03-21 07:30:00,25.3,16.9,29.69,ESE,117,0.0,14.0,70,0.00,,,0.00,Wunderground v.1.13,2013-03-21 13:30:00,
2013-03-21 07:35:00,25.6,17.2,29.68,ESE,121,0.0,14.0,70,0.00,,,0.00,Wunderground v.1.13,2013-03-21 13:35:00,
2013-03-21 07:40:00,25.8,17.4,29.68,ESE,119,0.0,14.0,70,0.00,,,0.00,Wunderground v.1.13,2013-03-21 13:40:00,
2013-03-21 07:49:00,26.7,17.2,29.67,SE,132,1.0,14.0,67,0.00,,,0.00,Wunderground v.1.13,2013-03-21 13:49:00,
2013-03-21 07:54:00,27.0,17.1,29.67,SE,143,3.0,14.0,66,0.00,,,0.00,Wunderground v.1.13,2013-03-21 13:54:00,
2013-03-21 08:04:00,27.3,16.7,29.68,SE,136,6.0,14.0,64,0.00,,,0.00,Wunderground v.1.13,2013-03-21 14:04:00,
2013-03-21 08:10:00,27.6,17.0,29.68,SSE,154,7.0,14.0,64,0.00,,,0.00,Wunderground v.1.13,2013-03-21 14:10:00,
2013-03-21 08:15:00,27.9,16.9,29.68,ESE,113,6.0,14.0,63,0.00,,,0.00,Wunderground v.1.13,2013-03-21 14:15:00,
2013-03-21 08:20:00,27.9,16.6,29.67,SSE,155,8.0,14.0,62,0.00,,,0.00,Wunderground v.1.13,2013-03-21 14:20:00,
2013-03-21 08:29:00,28.4,16.7,29.67,SE,142,9.0,9.0,61,0.00,,,0.00,Wunderground v.1.13,2013-03-21 14:29:00,
2013-03-21 08:34:00,28.5,16.4,29.66,SE,142,10.0,15.0,60,0.00,,,0.00,Wunderground v.1.13,2013-03-21 14:34:00,
2013-03-21 08:39:00,28.8,16.6,29.66,SSE,152,9.0,14.0,60,0.00,,,0.00,Wunderground v.1.13,2013-03-21 14:39:00,
2013-03-21 08:45:00,29.3,16.7,29.66,SSE,149,8.0,14.0,59,0.00,,,0.00,Wunderground v.1.13,2013-03-21 14:45:00,
2013-03-21 08:50:00,29.5,16.9,29.66,SSE,161,8.0,14.0,59,0.00,,,0.00,Wunderground v.1.13,2013-03-21 14:50:00,
2013-03-21 08:55:00,29.8,16.4,29.66,SSE,159,9.0,9.0,57,0.00,,,0.00,Wunderground v.1.13,2013-03-21 14:55:00,
2013-03-21 09:00:00,30.1,16.7,29.66,SSW,204,10.0,14.0,57,0.00,,,0.00,Wunderground v.1.13,2013-03-21 15:00:00,
2013-03-21 09:05:00,30.6,17.2,29.65,SE,131,9.0,14.0,57,0.00,,,0.00,Wunderground v.1.13,2013-03-21 15:05:00,
2013-03-21 09:10:00,30.6,16.7,29.65,ESE,120,9.0,14.0,56,0.00,,,0.00,Wunderground v.1.13,2013-03-21 15:10:00,
2013-03-21 09:15:00,30.7,16.8,29.65,South,179,10.0,10.0,56,0.00,,,0.00,Wunderground v.1.13,2013-03-21 15:15:00,
2013-03-21 09:19:00,31.3,17.4,29.65,SSE,161,10.0,10.0,56,0.00,,,0.00,Wunderground v.1.13,2013-03-21 15:19:00,
2013-03-21 09:25:00,31.3,17.4,29.65,SSE,148,9.0,9.0,56,0.00,,,0.00,Wunderground v.1.13,2013-03-21 15:25:00,
2013-03-21 09:35:00,32.1,18.2,29.65,SSE,155,8.0,8.0,56,0.00,,,0.00,Wunderground v.1.13,2013-03-21 15:35:00,
2013-03-21 09:39:00,32.5,17.7,29.65,South,173,8.0,8.0,54,0.00,,,0.00,Wunderground v.1.13,2013-03-21 15:39:00,
2013-03-21 09:45:00,32.7,17.9,29.65,South,180,8.0,8.0,54,0.00,,,0.00,Wunderground v.1.13,2013-03-21 15:45:00,
2013-03-21 09:50:00,32.4,18.0,29.64,SSE,163,9.0,9.0,55,0.00,,,0.00,Wunderground v.1.13,2013-03-21 15:50:00,
2013-03-21 09:55:00,32.7,18.3,29.64,SE,140,8.0,14.0,55,0.00,,,0.00,Wunderground v.1.13,2013-03-21 15:55:00,
2013-03-21 10:00:00,32.8,18.0,29.64,SSE,151,8.0,8.0,54,0.00,,,0.00,Wunderground v.1.13,2013-03-21 16:00:00,
2013-03-21 10:05:00,33.5,18.6,29.63,SSE,153,9.0,14.0,54,0.00,,,0.00,Wunderground v.1.13,2013-03-21 16:05:00,
2013-03-21 10:10:00,34.4,19.0,29.63,SSE,167,9.0,9.0,53,0.00,,,0.00,Wunderground v.1.13,2013-03-21 16:10:00,
2013-03-21 10:15:00,34.7,18.4,29.63,SSE,165,9.0,14.0,51,0.00,,,0.00,Wunderground v.1.13,2013-03-21 16:15:00,
2013-03-21 10:20:00,35.0,19.1,29.63,SSE,165,9.0,9.0,52,0.00,,,0.00,Wunderground v.1.13,2013-03-21 16:20:00,
2013-03-21 10:25:00,35.5,19.1,29.63,SE,145,9.0,14.0,51,0.00,,,0.00,Wunderground v.1.13,2013-03-21 16:25:00,
2013-03-21 10:30:00,35.0,19.1,29.63,SE,142,11.0,17.0,52,0.00,,,0.00,Wunderground v.1.13,2013-03-21 16:30:00,
2013-03-21 10:35:00,35.5,19.1,29.63,SE,142,12.0,14.0,51,0.00,,,0.00,Wunderground v.1.13,2013-03-21 16:35:00,
2013-03-21 10:45:00,35.3,19.0,29.63,SSE,149,6.0,6.0,51,0.00,,,0.00,Wunderground v.1.13,2013-03-21 16:45:00,
2013-03-21 10:50:00,35.5,19.6,29.63,SE,130,7.0,14.0,52,0.00,,,0.00,Wunderground v.1.13,2013-03-21 16:50:00,
2013-03-21 10:55:00,35.6,19.2,29.63,SSE,159,8.0,8.0,51,0.00,,,0.00,Wunderground v.1.13,2013-03-21 16:55:00,
2013-03-21 11:00:00,36.2,19.3,29.63,SE,136,8.0,8.0,50,0.00,,,0.00,Wunderground v.1.13,2013-03-21 17:00:00,
2013-03-21 11:05:00,36.8,19.9,29.62,South,184,5.0,14.0,50,0.00,,,0.00,Wunderground v.1.13,2013-03-21 17:05:00,
2013-03-21 11:10:00,36.3,19.4,29.62,SSE,156,4.0,14.0,50,0.00,,,0.00,Wunderground v.1.13,2013-03-21 17:10:00,
2013-03-21 11:19:00,36.6,19.7,29.63,SSE,163,7.0,14.0,50,0.00,,,0.00,Wunderground v.1.13,2013-03-21 17:19:00,
2013-03-21 11:24:00,37.2,19.8,29.63,SE,146,7.0,7.0,49,0.00,,,0.00,Wunderground v.1.13,2013-03-21 17:24:00,
2013-03-21 11:29:00,37.6,20.1,29.63,SE,140,4.0,14.0,49,0.00,,,0.00,Wunderground v.1.13,2013-03-21 17:29:00,
2013-03-21 11:34:00,37.3,19.4,29.62,SSE,159,5.0,14.0,48,0.00,,,0.00,Wunderground v.1.13,2013-03-21 17:34:00,
2013-03-21 11:39:00,37.3,19.9,29.62,SSE,157,7.0,7.0,49,0.00,,,0.00,Wunderground v.1.13,2013-03-21 17:39:00,
2013-03-21 11:45:00,38.5,20.5,29.62,SSE,155,6.0,14.0,48,0.00,,,0.00,Wunderground v.1.13,2013-03-21 17:45:00,
2013-03-21 11:50:00,38.3,20.3,29.62,SE,146,6.0,6.0,48,0.00,,,0.00,Wunderground v.1.13,2013-03-21 17:50:00,
2013-03-21 11:55:00,39.1,20.5,29.62,SE,141,6.0,15.0,47,0.00,,,0.00,Wunderground v.1.13,2013-03-21 17:55:00,
2013-03-21 12:00:00,38.5,20.5,29.62,SSE,151,6.0,6.0,48,0.00,,,0.00,Wunderground v.1.13,2013-03-21 18:00:00,
2013-03-21 12:05:00,39.6,20.5,29.62,South,189,6.0,6.0,46,0.00,,,0.00,Wunderground v.1.13,2013-03-21 18:05:00,
2013-03-21 12:10:00,39.1,20.0,29.62,SSE,154,5.0,5.0,46,0.00,,,0.00,Wunderground v.1.13,2013-03-21 18:10:00,
2013-03-21 12:15:00,39.1,20.0,29.62,SSE,163,4.0,14.0,46,0.00,,,0.00,Wunderground v.1.13,2013-03-21 18:15:00,
2013-03-21 12:20:00,38.5,20.5,29.61,SSE,157,5.0,14.0,48,0.00,,,0.00,Wunderground v.1.13,2013-03-21 18:20:00,
2013-03-21 12:30:00,38.9,20.9,29.61,South,176,7.0,7.0,48,0.00,,,0.00,Wunderground v.1.13,2013-03-21 18:30:00,
2013-03-21 12:35:00,39.6,21.0,29.60,East,84,4.0,4.0,47,0.00,,,0.00,Wunderground v.1.13,2013-03-21 18:35:00,
2013-03-21 12:39:00,40.3,21.1,29.60,SSE,167,1.0,1.0,46,0.00,,,0.00,Wunderground v.1.13,2013-03-21 18:39:00,
2013-03-21 12:49:00,41.2,20.9,29.59,South,184,4.0,4.0,44,0.00,,,0.00,Wunderground v.1.13,2013-03-21 18:49:00,
2013-03-21 12:54:00,41.2,20.9,29.59,South,171,6.0,14.0,44,0.00,,,0.00,Wunderground v.1.13,2013-03-21 18:54:00,
2013-03-21 12:59:00,41.6,21.3,29.59,South,178,6.0,6.0,44,0.00,,,0.00,Wunderground v.1.13,2013-03-21 18:59:00,
2013-03-21 13:04:00,41.2,20.9,29.60,South,186,7.0,7.0,44,0.00,,,0.00,Wunderground v.1.13,2013-03-21 19:04:00,
2013-03-21 13:09:00,41.1,20.8,29.60,South,184,7.0,7.0,44,0.00,,,0.00,Wunderground v.1.13,2013-03-21 19:09:00,
2013-03-21 13:15:00,41.2,20.9,29.60,SSE,159,6.0,6.0,44,0.00,,,0.00,Wunderground v.1.13,2013-03-21 19:15:00,
2013-03-21 13:20:00,41.3,21.0,29.60,SSE,167,5.0,5.0,44,0.00,,,0.00,Wunderground v.1.13,2013-03-21 19:20:00,
2013-03-21 13:25:00,41.5,21.2,29.60,SSE,159,4.0,14.0,44,0.00,,,0.00,Wunderground v.1.13,2013-03-21 19:25:00,
2013-03-21 13:30:00,42.1,21.7,29.60,SSE,151,3.0,14.0,44,0.00,,,0.00,Wunderground v.1.13,2013-03-21 19:30:00,
2013-03-21 13:39:00,42.8,21.3,29.59,SSE,159,4.0,14.0,42,0.00,,,0.00,Wunderground v.1.13,2013-03-21 19:39:00,
2013-03-21 13:49:00,43.5,21.3,29.59,South,186,4.0,4.0,41,0.00,,,0.00,Wunderground v.1.13,2013-03-21 19:49:00,
2013-03-21 13:55:00,43.8,21.6,29.59,SSE,151,5.0,14.0,41,0.00,,,0.00,Wunderground v.1.13,2013-03-21 19:55:00,
2013-03-21 13:59:00,44.1,21.9,29.59,SSE,167,5.0,14.0,41,0.00,,,0.00,Wunderground v.1.13,2013-03-21 19:59:00,
2013-03-21 14:05:00,43.8,21.0,29.59,South,169,5.0,14.0,40,0.00,,,0.00,Wunderground v.1.13,2013-03-21 20:05:00,
2013-03-21 14:10:00,43.5,21.3,29.59,South,172,7.0,14.0,41,0.00,,,0.00,Wunderground v.1.13,2013-03-21 20:10:00,
2013-03-21 14:20:00,43.6,21.4,29.58,South,169,4.0,4.0,41,0.00,,,0.00,Wunderground v.1.13,2013-03-21 20:20:00,
2013-03-21 14:25:00,43.3,21.1,29.58,SE,143,4.0,4.0,41,0.00,,,0.00,Wunderground v.1.13,2013-03-21 20:25:00,
2013-03-21 14:30:00,43.6,22.0,29.58,SE,130,4.0,14.0,42,0.00,,,0.00,Wunderground v.1.13,2013-03-21 20:30:00,
2013-03-21 14:35:00,43.8,21.6,29.57,SE,142,4.0,14.0,41,0.00,,,0.00,Wunderground v.1.13,2013-03-21 20:35:00,
2013-03-21 14:40:00,43.6,21.4,29.57,SSE,161,4.0,4.0,41,0.00,,,0.00,Wunderground v.1.13,2013-03-21 20:40:00,
2013-03-21 14:44:00,43.9,21.7,29.57,SSE,163,4.0,14.0,41,0.00,,,0.00,Wunderground v.1.13,2013-03-21 20:44:00,
2013-03-21 14:49:00,43.9,21.7,29.57,SE,146,4.0,14.0,41,0.00,,,0.00,Wunderground v.1.13,2013-03-21 20:49:00,
2013-03-21 14:54:00,43.9,21.7,29.57,SSE,163,5.0,14.0,41,0.00,,,0.00,Wunderground v.1.13,2013-03-21 20:54:00,
2013-03-21 14:59:00,43.9,21.7,29.57,ESE,123,6.0,6.0,41,0.00,,,0.00,Wunderground v.1.13,2013-03-21 20:59:00,
2013-03-21 15:04:00,44.2,22.0,29.56,SSE,163,5.0,5.0,41,0.00,,,0.00,Wunderground v.1.13,2013-03-21 21:04:00,
2013-03-21 15:09:00,44.3,22.1,29.56,ESE,119,4.0,4.0,41,0.00,,,0.00,Wunderground v.1.13,2013-03-21 21:09:00,
2013-03-21 15:14:00,44.3,22.1,29.56,SSE,148,5.0,5.0,41,0.00,,,0.00,Wunderground v.1.13,2013-03-21 21:14:00,
2013-03-21 15:19:00,44.6,21.7,29.56,SSE,147,4.0,4.0,40,0.00,,,0.00,Wunderground v.1.13,2013-03-21 21:19:00,
2013-03-21 15:24:00,44.5,21.6,29.56,SE,136,4.0,14.0,40,0.00,,,0.00,Wunderground v.1.13,2013-03-21 21:24:00,
2013-03-21 15:29:00,44.2,21.4,29.56,SE,146,7.0,7.0,40,0.00,,,0.00,Wunderground v.1.13,2013-03-21 21:29:00,
2013-03-21 15:34:00,44.1,21.9,29.57,SSE,159,7.0,14.0,41,0.00,,,0.00,Wunderground v.1.13,2013-03-21 21:34:00,
2013-03-21 15:39:00,43.9,21.7,29.57,SSE,164,7.0,7.0,41,0.00,,,0.00,Wunderground v.1.13,2013-03-21 21:39:00,
2013-03-21 15:44:00,43.9,21.7,29.57,South,178,6.0,14.0,41,0.00,,,0.00,Wunderground v.1.13,2013-03-21 21:44:00,
2013-03-21 15:49:00,43.8,22.2,29.57,South,172,6.0,6.0,42,0.00,,,0.00,Wunderground v.1.13,2013-03-21 21:49:00,
2013-03-21 15:54:00,43.3,22.8,29.57,SE,139,7.0,7.0,44,0.00,,,0.00,Wunderground v.1.13,2013-03-21 21:54:00,
2013-03-21 16:00:00,43.1,24.2,29.57,SE,134,7.0,7.0,47,0.00,,,0.00,Wunderground v.1.13,2013-03-21 22:00:00,
2013-03-21 16:05:00,42.8,25.4,29.58,South,169,5.0,5.0,50,0.00,,,0.00,Wunderground v.1.13,2013-03-21 22:05:00,
2013-03-21 16:10:00,42.3,25.4,29.58,South,188,3.0,3.0,51,0.00,,,0.00,Wunderground v.1.13,2013-03-21 22:10:00,
2013-03-21 16:15:00,42.6,25.7,29.58,SSE,164,2.0,2.0,51,0.00,,,0.00,Wunderground v.1.13,2013-03-21 22:15:00,
2013-03-21 16:20:00,42.8,23.9,29.58,SSE,147,1.0,1.0,47,0.00,,,0.00,Wunderground v.1.13,2013-03-21 22:20:00,
2013-03-21 16:25:00,43.1,24.2,29.58,SSE,152,0.0,14.0,47,0.00,,,0.00,Wunderground v.1.13,2013-03-21 22:25:00,
2013-03-21 16:30:00,43.2,23.3,29.58,SE,144,2.0,2.0,45,0.00,,,0.00,Wunderground v.1.13,2013-03-21 22:30:00,
2013-03-21 16:35:00,43.1,23.7,29.58,SSE,163,3.0,14.0,46,0.00,,,0.00,Wunderground v.1.13,2013-03-21 22:35:00,
2013-03-21 16:40:00,42.3,25.9,29.58,SSE,163,4.0,14.0,52,0.00,,,0.00,Wunderground v.1.13,2013-03-21 22:40:00,
2013-03-21 16:45:00,40.9,28.1,29.58,ENE,77,3.0,3.0,60,0.00,,,0.00,Wunderground v.1.13,2013-03-21 22:45:00,
2013-03-21 16:54:00,40.1,28.9,29.60,SSW,209,0.0,14.0,64,0.00,,,0.00,Wunderground v.1.13,2013-03-21 22:54:00,
2013-03-21 16:59:00,40.2,28.6,29.60,SE,142,0.0,14.0,63,0.00,,,0.00,Wunderground v.1.13,2013-03-21 22:59:00,
2013-03-21 17:04:00,40.2,29.0,29.61,SE,142,0.0,14.0,64,0.00,,,0.00,Wunderground v.1.13,2013-03-21 23:04:00,
2013-03-21 17:09:00,40.1,30.0,29.61,SE,142,0.0,14.0,67,0.00,,,0.01,Wunderground v.1.13,2013-03-21 23:09:00,
2013-03-21 17:14:00,39.9,30.5,29.61,SE,142,0.0,14.0,69,0.00,,,0.01,Wunderground v.1.13,2013-03-21 23:14:00,
2013-03-21 17:19:00,39.8,30.1,29.61,SE,137,0.0,14.0,68,0.00,,,0.01,Wunderground v.1.13,2013-03-21 23:19:00,
2013-03-21 17:24:00,39.9,30.5,29.61,SE,134,0.0,14.0,69,0.00,,,0.01,Wunderground v.1.13,2013-03-21 23:24:00,
2013-03-21 17:29:00,39.8,30.5,29.61,SE,130,0.0,14.0,69,0.00,,,0.01,Wunderground v.1.13,2013-03-21 23:29:00,
2013-03-21 17:35:00,39.9,31.6,29.61,SE,130,0.0,14.0,72,0.00,,,0.01,Wunderground v.1.13,2013-03-21 23:35:00,
2013-03-21 17:40:00,39.9,31.9,29.61,SE,130,0.0,14.0,73,0.00,,,0.01,Wunderground v.1.13,2013-03-21 23:40:00,
2013-03-21 17:45:00,39.8,31.2,29.61,SE,130,0.0,14.0,71,0.00,,,0.01,Wunderground v.1.13,2013-03-21 23:45:00,
2013-03-21 17:50:00,40.2,31.2,29.62,SSE,159,0.0,14.0,70,0.00,,,0.01,Wunderground v.1.13,2013-03-21 23:50:00,
2013-03-21 17:55:00,40.8,30.3,29.62,South,173,2.0,2.0,66,0.00,,,0.01,Wunderground v.1.13,2013-03-21 23:55:00,
2013-03-21 18:00:00,40.6,30.1,29.62,South,171,2.0,2.0,66,0.00,,,0.01,Wunderground v.1.13,2013-03-22 00:00:00,
2013-03-21 18:05:00,40.8,29.9,29.63,SSE,153,0.0,14.0,65,0.00,,,0.01,Wunderground v.1.13,2013-03-22 00:05:00,
2013-03-21 18:10:00,40.8,30.3,29.63,SSW,200,2.0,14.0,66,0.00,,,0.01,Wunderground v.1.13,2013-03-22 00:10:00,
2013-03-21 18:14:00,40.6,30.5,29.63,SSW,192,4.0,14.0,67,0.00,,,0.01,Wunderground v.1.13,2013-03-22 00:14:00,
2013-03-21 18:19:00,40.2,30.5,29.63,South,169,4.0,14.0,68,0.00,,,0.01,Wunderground v.1.13,2013-03-22 00:19:00,
2013-03-21 18:24:00,39.8,30.8,29.63,SSE,155,6.0,6.0,70,0.00,,,0.01,Wunderground v.1.13,2013-03-22 00:24:00,
2013-03-21 18:29:00,39.3,31.0,29.63,South,180,7.0,7.0,72,0.00,,,0.01,Wunderground v.1.13,2013-03-22 00:29:00,
2013-03-21 18:34:00,38.9,31.0,29.64,SSE,153,6.0,6.0,73,0.00,,,0.01,Wunderground v.1.13,2013-03-22 00:34:00,
2013-03-21 18:39:00,38.5,31.3,29.64,South,182,4.0,4.0,75,0.00,,,0.01,Wunderground v.1.13,2013-03-22 00:39:00,
2013-03-21 18:44:00,38.3,31.4,29.64,SSE,160,3.0,14.0,76,0.00,,,0.01,Wunderground v.1.13,2013-03-22 00:44:00,
2013-03-21 18:49:00,38.0,31.4,29.65,South,177,2.0,2.0,77,0.00,,,0.01,Wunderground v.1.13,2013-03-22 00:49:00,
2013-03-21 18:55:00,37.9,31.7,29.65,South,182,2.0,14.0,78,0.00,,,0.01,Wunderground v.1.13,2013-03-22 00:55:00,
2013-03-21 19:00:00,37.8,32.2,29.65,SSE,159,2.0,14.0,80,0.00,,,0.01,Wunderground v.1.13,2013-03-22 01:00:00,
2013-03-21 19:05:00,37.6,32.0,29.65,South,182,3.0,3.0,80,0.00,,,0.01,Wunderground v.1.13,2013-03-22 01:05:00,
2013-03-21 19:10:00,37.5,32.2,29.65,SSE,155,3.0,14.0,81,0.00,,,0.01,Wunderground v.1.13,2013-03-22 01:10:00,
2013-03-21 19:15:00,37.3,32.0,29.65,SSE,163,2.0,2.0,81,0.00,,,0.01,Wunderground v.1.13,2013-03-22 01:15:00,
2013-03-21 19:20:00,37.2,32.2,29.66,SE,145,2.0,14.0,82,0.00,,,0.01,Wunderground v.1.13,2013-03-22 01:20:00,
2013-03-21 19:25:00,37.2,32.2,29.66,SSE,157,1.0,1.0,82,0.00,,,0.01,Wunderground v.1.13,2013-03-22 01:25:00,
2013-03-21 19:30:00,37.0,32.0,29.66,SSE,165,0.0,14.0,82,0.00,,,0.01,Wunderground v.1.13,2013-03-22 01:30:00,
2013-03-21 19:35:00,36.9,32.2,29.67,SSE,164,0.0,14.0,83,0.00,,,0.01,Wunderground v.1.13,2013-03-22 01:35:00,
2013-03-21 19:40:00,36.9,32.2,29.67,SE,143,0.0,14.0,83,0.00,,,0.01,Wunderground v.1.13,2013-03-22 01:40:00,
2013-03-21 19:45:00,36.9,32.2,29.67,SSE,151,0.0,14.0,83,0.00,,,0.01,Wunderground v.1.13,2013-03-22 01:45:00,
2013-03-21 19:50:00,36.9,32.5,29.68,SSE,166,1.0,1.0,84,0.00,,,0.01,Wunderground v.1.13,2013-03-22 01:50:00,
2013-03-21 19:55:00,36.9,32.5,29.68,SSE,155,1.0,1.0,84,0.00,,,0.01,Wunderground v.1.13,2013-03-22 01:55:00,
2013-03-21 20:00:00,36.8,32.4,29.68,SE,134,0.0,14.0,84,0.00,,,0.01,Wunderground v.1.13,2013-03-22 02:00:00,
2013-03-21 20:04:00,36.6,32.5,29.70,SSE,167,0.0,14.0,85,0.00,,,0.02,Wunderground v.1.13,2013-03-22 02:04:00,
2013-03-21 20:09:00,36.5,32.4,29.70,SE,146,0.0,14.0,85,0.00,,,0.02,Wunderground v.1.13,2013-03-22 02:09:00,
2013-03-21 20:14:00,36.0,32.2,29.70,SSE,148,0.0,14.0,86,0.06,,,0.03,Wunderground v.1.13,2013-03-22 02:14:00,
2013-03-21 20:19:00,35.3,31.5,29.70,South,173,3.0,3.0,86,0.08,,,0.04,Wunderground v.1.13,2013-03-22 02:19:00,
2013-03-21 20:24:00,35.0,31.5,29.70,South,170,5.0,5.0,87,0.08,,,0.04,Wunderground v.1.13,2013-03-22 02:24:00,
2013-03-21 20:29:00,34.9,31.7,29.70,South,171,3.0,3.0,88,0.06,,,0.04,Wunderground v.1.13,2013-03-22 02:29:00,
2013-03-21 20:35:00,34.7,31.5,29.71,South,171,0.0,14.0,88,0.04,,,0.04,Wunderground v.1.13,2013-03-22 02:35:00,
2013-03-21 20:40:00,34.6,31.7,29.71,SE,145,0.0,14.0,89,0.04,,,0.05,Wunderground v.1.13,2013-03-22 02:40:00,
2013-03-21 20:44:00,34.6,31.7,29.71,SE,145,0.0,14.0,89,0.04,,,0.05,Wunderground v.1.13,2013-03-22 02:44:00,
2013-03-21 20:49:00,34.6,32.0,29.71,SE,144,0.0,14.0,90,0.04,,,0.05,Wunderground v.1.13,2013-03-22 02:49:00,
2013-03-21 20:55:00,34.6,32.0,29.71,SE,144,0.0,14.0,90,0.00,,,0.05,Wunderground v.1.13,2013-03-22 02:55:00,
2013-03-21 21:00:00,34.6,32.0,29.71,SE,144,0.0,14.0,90,0.00,,,0.05,Wunderground v.1.13,2013-03-22 03:00:00,
2013-03-21 21:05:00,34.7,32.3,29.71,SE,144,0.0,14.0,91,0.00,,,0.05,Wunderground v.1.13,2013-03-22 03:05:00,
2013-03-21 21:10:00,35.0,32.6,29.71,SE,145,0.0,14.0,91,0.00,,,0.05,Wunderground v.1.13,2013-03-22 03:10:00,
2013-03-21 21:15:00,35.3,32.9,29.71,SE,144,0.0,14.0,91,0.00,,,0.05,Wunderground v.1.13,2013-03-22 03:15:00,
2013-03-21 21:20:00,35.3,33.2,29.72,SE,144,0.0,14.0,92,0.00,,,0.05,Wunderground v.1.13,2013-03-22 03:20:00,
2013-03-21 21:25:00,35.6,33.5,29.72,SE,144,0.0,14.0,92,0.00,,,0.05,Wunderground v.1.13,2013-03-22 03:25:00,
2013-03-21 21:34:00,35.9,33.8,29.72,SSW,211,0.0,14.0,92,0.00,,,0.05,Wunderground v.1.13,2013-03-22 03:34:00,
2013-03-21 21:39:00,36.0,33.9,29.72,SSW,198,0.0,14.0,92,0.00,,,0.05,Wunderground v.1.13,2013-03-22 03:39:00,
2013-03-21 21:44:00,36.2,34.1,29.72,SW,225,0.0,14.0,92,0.00,,,0.05,Wunderground v.1.13,2013-03-22 03:44:00,
2013-03-21 21:49:00,36.3,34.2,29.74,SW,221,1.0,14.0,92,0.00,,,0.05,Wunderground v.1.13,2013-03-22 03:49:00,
2013-03-21 21:55:00,36.3,34.2,29.74,SW,232,2.0,2.0,92,0.00,,,0.05,Wunderground v.1.13,2013-03-22 03:55:00,
2013-03-21 22:04:00,36.2,34.1,29.73,South,172,1.0,1.0,92,0.00,,,0.05,Wunderground v.1.13,2013-03-22 04:04:00,
2013-03-21 22:10:00,36.3,34.2,29.73,SSW,196,1.0,14.0,92,0.00,,,0.05,Wunderground v.1.13,2013-03-22 04:10:00,
2013-03-21 22:15:00,36.3,34.2,29.73,SSW,207,3.0,3.0,92,0.00,,,0.05,Wunderground v.1.13,2013-03-22 04:15:00,
2013-03-21 22:20:00,36.5,34.4,29.73,SSW,208,3.0,3.0,92,0.00,,,0.05,Wunderground v.1.13,2013-03-22 04:20:00,
2013-03-21 22:29:00,37.0,34.9,29.73,SW,226,1.0,1.0,92,0.00,,,0.05,Wunderground v.1.13,2013-03-22 04:29:00,
2013-03-21 22:34:00,37.3,35.2,29.74,WSW,248,1.0,1.0,92,0.00,,,0.05,Wunderground v.1.13,2013-03-22 04:34:00,
2013-03-21 22:39:00,37.8,35.7,29.74,WSW,250,1.0,1.0,92,0.00,,,0.05,Wunderground v.1.13,2013-03-22 04:39:00,
2013-03-21 22:44:00,38.2,36.1,29.74,West,276,1.0,1.0,92,0.00,,,0.05,Wunderground v.1.13,2013-03-22 04:44:00,
2013-03-21 22:49:00,38.5,36.1,29.74,WSW,240,1.0,14.0,91,0.00,,,0.05,Wunderground v.1.13,2013-03-22 04:49:00,
2013-03-21 22:55:00,38.6,35.6,29.74,West,280,2.0,14.0,89,0.00,,,0.05,Wunderground v.1.13,2013-03-22 04:55:00,
2013-03-21 23:04:00,38.6,34.2,29.74,NW,320,7.0,7.0,84,0.00,,,0.05,Wunderground v.1.13,2013-03-22 05:04:00,
2013-03-21 23:09:00,38.5,33.8,29.74,WNW,286,6.0,6.0,83,0.00,,,0.05,Wunderground v.1.13,2013-03-22 05:09:00,
2013-03-21 23:14:00,38.2,33.5,29.74,West,273,3.0,3.0,83,0.00,,,0.05,Wunderground v.1.13,2013-03-22 05:14:00,
2013-03-21 23:20:00,37.9,33.2,29.74,WNW,298,4.0,4.0,83,0.00,,,0.05,Wunderground v.1.13,2013-03-22 05:20:00,
2013-03-21 23:25:00,37.6,32.6,29.74,West,269,3.0,3.0,82,0.00,,,0.05,Wunderground v.1.13,2013-03-22 05:25:00,
2013-03-21 23:30:00,37.3,32.6,29.74,West,277,1.0,1.0,83,0.00,,,0.05,Wunderground v.1.13,2013-03-22 05:30:00,
2013-03-21 23:35:00,36.9,32.2,29.75,West,271,1.0,1.0,83,0.00,,,0.05,Wunderground v.1.13,2013-03-22 05:35:00,
2013-03-21 23:39:00,36.6,31.9,29.75,West,267,1.0,1.0,83,0.00,,,0.05,Wunderground v.1.13,2013-03-22 05:39:00,
2013-03-21 23:44:00,36.3,31.6,29.75,WNW,289,0.0,14.0,83,0.00,,,0.05,Wunderground v.1.13,2013-03-22 05:44:00,
2013-03-21 23:50:00,36.0,31.3,29.75,WNW,284,0.0,14.0,83,0.00,,,0.05,Wunderground v.1.13,2013-03-22 05:50:00,